Station Historical Data
Daily Summary for September 4, 2017 Units:  Metric    English   Both
« Previous Day
Next Day »
Daily Weekly Monthly Yearly Custom
  High: Low: Average:
Temperature: 31.1 °C 14.4 °C 21.8 °C
Dew Point: 19.3 °C 13 °C 16.3 °C
Humidity: 93% 43% 73%
Wind Speed: 1.6km/h 0km/h 0km/h
Wind Gust: 8km/h - -
Wind- - SW
Pressure: 1020.2 hPa 1015.8 hPa -
Precipitation: 0 mm    
Historical Graphs
 
 
Tabular Data for September 4, 2017
Time Temperature Dew Point Pressure Wind Wind Speed Wind Gust Humidity Rainfall Rate (Hourly) Conditions
00:00 17.7 °C 15.1 °C 1019.9 hPa Calm     85% 0 mm CLR
00:10 17.5 °C 14.9 °C 1019.9 hPa Calm     85% 0 mm CLR
00:15 17.4 °C 14.9 °C 1019.9 hPa Calm     85% 0 mm CLR
00:20 17.4 °C 14.8 °C 1019.9 hPa Calm     85% 0 mm CLR
00:25 17.3 °C 14.9 °C 1019.9 hPa Calm     86% 0 mm CLR
00:30 17.2 °C 14.7 °C 1019.9 hPa Calm     85% 0 mm CLR
00:35 17.2 °C 14.8 °C 1019.9 hPa Calm     86% 0 mm CLR
00:40 17.1 °C 14.7 °C 1019.5 hPa Calm     86% 0 mm CLR
00:45 17.1 °C 14.7 °C 1019.9 hPa Calm     86% 0 mm CLR
00:50 17.1 °C 14.7 °C 1019.9 hPa Calm     86% 0 mm CLR
00:55 17 °C 14.7 °C 1019.9 hPa Calm     86% 0 mm CLR
01:00 16.9 °C 14.6 °C 1019.5 hPa Calm     86% 0 mm CLR
01:05 16.9 °C 14.5 °C 1019.5 hPa Calm     86% 0 mm CLR
01:10 16.8 °C 14.6 °C 1019.5 hPa Calm     87% 0 mm CLR
01:15 16.7 °C 14.6 °C 1019.5 hPa Calm     87% 0 mm CLR
01:20 16.7 °C 14.5 °C 1019.5 hPa Calm     87% 0 mm CLR
01:25 16.6 °C 14.4 °C 1019.5 hPa Calm     87% 0 mm CLR
01:30 16.6 °C 14.4 °C 1019.5 hPa Calm     87% 0 mm CLR
01:35 16.5 °C 14.3 °C 1019.5 hPa Calm     87% 0 mm CLR
01:40 16.5 °C 14.5 °C 1019.5 hPa Calm     88% 0 mm CLR
01:45 16.4 °C 14.4 °C 1019.5 hPa Calm     88% 0 mm CLR
01:50 16.4 °C 14.4 °C 1019.5 hPa Calm     88% 0 mm CLR
01:55 16.3 °C 14.3 °C 1019.5 hPa Calm     88% 0 mm CLR
02:00 16.3 °C 14.3 °C 1019.5 hPa Calm     88% 0 mm CLR
02:10 16.2 °C 14.2 °C 1019.5 hPa Calm     88% 0 mm CLR
02:15 16.2 °C 14.4 °C 1019.5 hPa Calm     89% 0 mm CLR
02:20 16.2 °C 14.2 °C 1019.5 hPa Calm     88% 0 mm CLR
02:25 16.2 °C 14.2 °C 1019.5 hPa Calm     88% 0 mm CLR
02:30 16.1 °C 14.1 °C 1019.2 hPa Calm     88% 0 mm CLR
02:40 15.9 °C 13.9 °C 1019.2 hPa Calm     88% 0 mm CLR
02:45 15.8 °C 13.8 °C 1019.2 hPa Calm     88% 0 mm CLR
02:50 15.8 °C 13.9 °C 1019.2 hPa Calm     89% 0 mm CLR
02:55 15.7 °C 13.9 °C 1019.2 hPa Calm     89% 0 mm CLR
03:00 15.7 °C 13.9 °C 1019.2 hPa Calm     89% 0 mm CLR
03:05 15.6 °C 13.8 °C 1019.5 hPa Calm     89% 0 mm CLR
03:10 15.6 °C 13.8 °C 1019.2 hPa Calm     89% 0 mm CLR
03:15 15.6 °C 13.7 °C 1019.2 hPa Calm     89% 0 mm CLR
03:20 15.6 °C 13.7 °C 1019.2 hPa Calm     89% 0 mm CLR
03:25 15.4 °C 13.7 °C 1019.2 hPa Calm     89% 0 mm CLR
03:30 15.4 °C 13.6 °C 1019.2 hPa Calm     89% 0 mm CLR
03:35 15.4 °C 13.8 °C 1019.2 hPa Calm     90% 0 mm CLR
03:40 15.4 °C 13.8 °C 1019.2 hPa Calm     90% 0 mm CLR
03:45 15.3 °C 13.7 °C 1019.2 hPa Calm     90% 0 mm CLR
03:50 15.3 °C 13.7 °C 1019.2 hPa Calm     90% 0 mm CLR
03:55 15.3 °C 13.7 °C 1019.2 hPa Calm     90% 0 mm CLR
04:00 15.3 °C 13.7 °C 1019.2 hPa Calm     90% 0 mm CLR
04:05 15.3 °C 13.7 °C 1019.2 hPa Calm     90% 0 mm CLR
04:10 15.3 °C 13.7 °C 1019.2 hPa Calm     90% 0 mm CLR
04:15 15.3 °C 13.7 °C 1019.2 hPa Calm     90% 0 mm CLR
04:20 15.3 °C 13.6 °C 1019.2 hPa Calm     90% 0 mm CLR
04:25 15.2 °C 13.6 °C 1019.2 hPa Calm     90% 0 mm CLR
04:30 15.2 °C 13.6 °C 1019.2 hPa Calm     90% 0 mm CLR
04:35 15.2 °C 13.6 °C 1018.8 hPa Calm     90% 0 mm CLR
04:40 15.1 °C 13.4 °C 1019.2 hPa Calm     90% 0 mm CLR
04:45 15.1 °C 13.4 °C 1019.2 hPa Calm     90% 0 mm CLR
04:50 15 °C 13.4 °C 1018.8 hPa Calm     90% 0 mm CLR
04:55 14.9 °C 13.3 °C 1018.8 hPa Calm     90% 0 mm CLR
05:00 14.9 °C 13.3 °C 1018.8 hPa Calm     90% 0 mm CLR
05:05 14.9 °C 13.3 °C 1018.8 hPa Calm     90% 0 mm CLR
05:10 14.9 °C 13.3 °C 1018.8 hPa Calm     90% 0 mm CLR
05:15 14.8 °C 13.2 °C 1018.8 hPa Calm     90% 0 mm CLR
05:20 14.8 °C 13.4 °C 1018.8 hPa Calm     91% 0 mm CLR
05:25 14.8 °C 13.2 °C 1018.8 hPa Calm     90% 0 mm CLR
05:30 14.8 °C 13.3 °C 1018.8 hPa Calm     91% 0 mm CLR
05:35 14.8 °C 13.3 °C 1019.2 hPa Calm     91% 0 mm CLR
05:40 14.7 °C 13.3 °C 1019.2 hPa Calm     91% 0 mm CLR
05:45 14.7 °C 13.3 °C 1019.2 hPa Calm     91% 0 mm CLR
05:50 14.7 °C 13.3 °C 1019.2 hPa Calm     91% 0 mm CLR
05:55 14.7 °C 13.2 °C 1019.2 hPa Calm     91% 0 mm CLR
06:00 14.6 °C 13.2 °C 1019.2 hPa Calm     91% 0 mm CLR
06:05 14.7 °C 13.2 °C 1019.2 hPa Calm     91% 0 mm CLR
06:10 14.7 °C 13.2 °C 1019.2 hPa Calm     91% 0 mm CLR
06:15 14.6 °C 13.2 °C 1019.2 hPa Calm     91% 0 mm CLR
06:20 14.6 °C 13.2 °C 1019.2 hPa Calm     91% 0 mm CLR
06:25 14.6 °C 13.2 °C 1019.2 hPa Calm     91% 0 mm CLR
06:30 14.7 °C 13.2 °C 1019.2 hPa Calm     91% 0 mm CLR
06:40 14.6 °C 13.1 °C 1019.5 hPa Calm     91% 0 mm CLR
06:45 14.6 °C 13.1 °C 1019.5 hPa Calm     91% 0 mm CLR
06:50 14.6 °C 13.1 °C 1019.5 hPa Calm     91% 0 mm CLR
06:55 14.6 °C 13.1 °C 1019.5 hPa Calm     91% 0 mm CLR
07:00 14.5 °C 13.1 °C 1019.5 hPa Calm     91% 0 mm CLR
07:05 14.4 °C 13 °C 1019.5 hPa Calm     91% 0 mm CLR
07:10 14.4 °C 13.2 °C 1019.5 hPa Calm     92% 0 mm CLR
07:15 14.5 °C 13.2 °C 1019.5 hPa Calm     92% 0 mm CLR
07:20 14.5 °C 13.2 °C 1019.5 hPa Calm     92% 0 mm FEW
07:25 14.4 °C 13.2 °C 1019.5 hPa Calm     92% 0 mm FEW
07:30 14.4 °C 13.2 °C 1019.5 hPa Calm     92% 0 mm FEW
07:40 14.6 °C 13.3 °C 1019.9 hPa Calm     92% 0 mm FEW
07:45 14.7 °C 13.3 °C 1019.9 hPa Calm     92% 0 mm FEW
07:50 14.8 °C 13.6 °C 1019.9 hPa Calm     92% 0 mm FEW
07:55 15.1 °C 13.9 °C 1019.9 hPa Calm     93% 0 mm FEW
08:00 15.2 °C 13.9 °C 1019.9 hPa Calm     92% 0 mm FEW
08:05 15.6 °C 14.4 °C 1019.9 hPa Calm     93% 0 mm FEW
08:10 15.8 °C 14.7 °C 1019.9 hPa Calm     93% 0 mm FEW
08:15 16.1 °C 14.8 °C 1019.9 hPa Calm     92% 0 mm FEW
08:25 16.6 °C 15.1 °C 1019.9 hPa Calm     91% 0 mm FEW
08:30 17.1 °C 15.4 °C 1020.2 hPa Calm     90% 0 mm FEW
08:35 17.3 °C 15.5 °C 1019.9 hPa Calm     89% 0 mm FEW
08:40 17.6 °C 15.5 °C 1019.9 hPa Calm     88% 0 mm FEW
08:45 17.7 °C 15.7 °C 1019.9 hPa Calm     88% 0 mm FEW
08:50 17.8 °C 15.6 °C 1020.2 hPa Calm     87% 0 mm FEW
08:55 17.9 °C 15.7 °C 1020.2 hPa Calm     87% 0 mm FEW
09:00 18 °C 15.8 °C 1020.2 hPa Calm     87% 0 mm FEW
09:10 18.3 °C 15.8 °C 1020.2 hPa Calm     85% 0 mm FEW
09:15 18.6 °C 16.2 °C 1020.2 hPa Calm     86% 0 mm FEW
09:20 18.8 °C 16.3 °C 1020.2 hPa Calm     85% 0 mm -DZ
09:25 19.2 °C 16.6 °C 1020.2 hPa Calm     85% 0 mm -DZ
09:30 19.4 °C 16.6 °C 1020.2 hPa Calm     84% 0 mm -DZ
09:35 19.7 °C 15.7 °C 1020.2 hPa Calm     78% 0 mm -DZ
09:40 20.2 °C 16.4 °C 1020.2 hPa Calm     79% 0 mm -DZ
09:45 20.7 °C 16.4 °C 1020.2 hPa Calm     77% 0 mm -DZ
09:50 21.1 °C 16.7 °C 1020.2 hPa Calm     76% 0 mm -DZ
09:55 21.6 °C 16.9 °C 1020.2 hPa Calm     75% 0 mm -DZ
10:00 22.1 °C 17.2 °C 1020.2 hPa Calm     74% 0 mm -DZ
10:05 22.5 °C 16.1 °C 1020.2 hPa Calm     67% 0 mm -DZ
10:10 22.7 °C 16.5 °C 1020.2 hPa Calm     68% 0 mm -DZ
10:15 23 °C 17 °C 1020.2 hPa Calm   1.6 km/h 69% 0 mm -DZ
10:20 23.2 °C 16.5 °C 1020.2 hPa Calm     66% 0 mm FEW
10:25 23.4 °C 16.9 °C 1020.2 hPa Calm   1.6 km/h 67% 0 mm FEW
10:35 23.9 °C 17.4 °C 1020.2 hPa Calm     67% 0 mm FEW
10:40 24.2 °C 16.9 °C 1020.2 hPa Calm   1.6 km/h 64% 0 mm FEW
10:45 24.6 °C 17.3 °C 1020.2 hPa Calm     64% 0 mm FEW
10:50 24.8 °C 16.8 °C 1020.2 hPa NW 1.6 km/h 3.2 km/h 61% 0 mm FEW
10:55 25.1 °C 16.7 °C 1020.2 hPa SW 1.6 km/h 3.2 km/h 60% 0 mm FEW
11:00 25.2 °C 16.8 °C 1020.2 hPa Calm     60% 0 mm FEW
11:05 25.4 °C 17.3 °C 1020.2 hPa Calm   1.6 km/h 61% 0 mm FEW
11:10 25.5 °C 17.2 °C 1020.2 hPa Calm   1.6 km/h 60% 0 mm FEW
11:15 25.6 °C 17.7 °C 1020.2 hPa Calm   1.6 km/h 62% 0 mm FEW
11:20 25.7 °C 17.1 °C 1020.2 hPa Calm   1.6 km/h 59% 0 mm FEW
11:25 25.8 °C 17.2 °C 1020.2 hPa Calm   1.6 km/h 59% 0 mm FEW
11:30 26.2 °C 17.6 °C 1020.2 hPa Calm   1.6 km/h 59% 0 mm FEW
11:40 26.4 °C 16.7 °C 1020.2 hPa Calm   1.6 km/h 55% 0 mm FEW
11:45 26.6 °C 15.9 °C 1020.2 hPa Calm   1.6 km/h 52% 0 mm FEW
11:50 27 °C 16.6 °C 1020.2 hPa Calm   1.6 km/h 53% 0 mm FEW
11:55 27.4 °C 15.7 °C 1020.2 hPa Calm     49% 0 mm FEW
12:00 27.7 °C 16.3 °C 1019.9 hPa Calm   3.2 km/h 50% 0 mm FEW
12:05 27.7 °C 16.3 °C 1019.9 hPa Calm   3.2 km/h 50% 0 mm FEW
12:10 27.9 °C 15.2 °C 1019.9 hPa Calm   1.6 km/h 46% 0 mm FEW
12:15 27.9 °C 16.6 °C 1019.9 hPa Calm   1.6 km/h 50% 0 mm FEW
12:20 28.2 °C 16.8 °C 1019.9 hPa Calm   1.6 km/h 50% 0 mm FEW
12:25 28.3 °C 15.9 °C 1019.9 hPa Calm   3.2 km/h 47% 0 mm FEW
12:30 28.6 °C 17.7 °C 1019.5 hPa SSW 1.6 km/h 4.8 km/h 52% 0 mm FEW
12:35 28.6 °C 16.9 °C 1019.5 hPa Calm   3.2 km/h 49% 0 mm FEW
12:40 28.7 °C 16.6 °C 1019.5 hPa Calm   8 km/h 48% 0 mm FEW
12:45 29 °C 16.9 °C 1019.5 hPa Calm   1.6 km/h 48% 0 mm FEW
12:50 29.3 °C 16.1 °C 1019.5 hPa Calm   3.2 km/h 45% 0 mm FEW
12:55 29.4 °C 16.6 °C 1019.5 hPa Calm   4.8 km/h 46% 0 mm FEW
13:00 29.4 °C 15.6 °C 1019.2 hPa West 1.6 km/h 4.8 km/h 43% 0 mm FEW
13:05 29.6 °C 16.4 °C 1019.2 hPa Calm   1.6 km/h 45% 0 mm FEW
13:10 29.8 °C 16.2 °C 1019.2 hPa Calm   3.2 km/h 44% 0 mm FEW
13:15 29.9 °C 17.1 °C 1019.2 hPa Calm   1.6 km/h 46% 0 mm FEW
13:20 29.9 °C 16.7 °C 1019.2 hPa Calm   4.8 km/h 45% 0 mm FEW
13:25 29.8 °C 17 °C 1018.8 hPa Calm   1.6 km/h 46% 0 mm FEW
13:30 29.9 °C 17.4 °C 1018.8 hPa Calm   3.2 km/h 47% 0 mm FEW
13:35 30.3 °C 17.7 °C 1018.8 hPa Calm   1.6 km/h 47% 0 mm FEW
13:40 30.7 °C 17.4 °C 1018.8 hPa Calm   1.6 km/h 45% 0 mm FEW
13:45 30.8 °C 17.1 °C 1018.8 hPa West 1.6 km/h 8 km/h 44% 0 mm FEW
13:50 30.2 °C 17 °C 1018.8 hPa Calm   4.8 km/h 45% 0 mm FEW
13:55 30.3 °C 17.4 °C 1018.8 hPa Calm   3.2 km/h 46% 0 mm FEW
14:00 30.6 °C 18.3 °C 1018.8 hPa Calm   3.2 km/h 48% 0 mm FEW
14:05 30.8 °C 17.5 °C 1018.8 hPa Calm   3.2 km/h 45% 0 mm FEW
14:10 30.7 °C 18.1 °C 1018.5 hPa Calm   1.6 km/h 47% 0 mm FEW
14:15 31.1 °C 18.4 °C 1018.5 hPa Calm   1.6 km/h 47% 0 mm FEW
14:20 31.1 °C 18.4 °C 1018.5 hPa Calm   1.6 km/h 47% 0 mm FEW
14:25 30.8 °C 17.5 °C 1018.5 hPa NNE 1.6 km/h 4.8 km/h 45% 0 mm FEW
14:30 30.3 °C 17.4 °C 1018.5 hPa Calm   3.2 km/h 46% 0 mm FEW
14:35 29.8 °C 16.6 °C 1018.5 hPa West 1.6 km/h 8 km/h 45% 0 mm FEW
14:40 29.5 °C 18 °C 1018.5 hPa Calm   1.6 km/h 50% 0 mm FEW
14:45 29.5 °C 17.3 °C 1018.2 hPa Calm   1.6 km/h 48% 0 mm FEW
14:55 29.1 °C 17.9 °C 1018.2 hPa Calm   3.2 km/h 51% 0 mm FEW
15:00 28.9 °C 18.1 °C 1018.2 hPa Calm     52% 0 mm FEW
15:10 28.5 °C 17.4 °C 1017.8 hPa Calm   1.6 km/h 51% 0 mm FEW
15:15 28.3 °C 17.8 °C 1017.8 hPa Calm     53% 0 mm FEW
15:20 28.2 °C 18.1 °C 1017.8 hPa Calm     54% 0 mm SCT
15:25 28.1 °C 17.9 °C 1017.8 hPa Calm   4.8 km/h 54% 0 mm SCT
15:30 28.1 °C 17.9 °C 1017.8 hPa West 1.6 km/h 3.2 km/h 54% 0 mm SCT
15:35 28.3 °C 18.4 °C 1017.5 hPa Calm   1.6 km/h 55% 0 mm SCT
15:40 28.5 °C 18.3 °C 1017.5 hPa WNW 1.6 km/h 8 km/h 54% 0 mm SCT
15:45 28.5 °C 18 °C 1017.5 hPa Calm     53% 0 mm SCT
15:50 28.5 °C 18.6 °C 1017.5 hPa Calm     55% 0 mm SCT
15:55 28.5 °C 18 °C 1017.5 hPa Calm   1.6 km/h 53% 0 mm SCT
16:00 28.3 °C 18.4 °C 1017.5 hPa Calm   1.6 km/h 55% 0 mm SCT
16:10 27.8 °C 18.2 °C 1017.5 hPa Calm     56% 0 mm SCT
16:15 27.7 °C 18.7 °C 1017.2 hPa Calm     58% 0 mm SCT
16:20 27.7 °C 19.2 °C 1017.2 hPa Calm     60% 0 mm BKN
16:25 27.7 °C 19 °C 1017.2 hPa Calm     59% 0 mm BKN
16:30 27.8 °C 17.9 °C 1017.2 hPa Calm   1.6 km/h 55% 0 mm BKN
16:35 27.9 °C 18.3 °C 1017.2 hPa Calm   1.6 km/h 56% 0 mm BKN
16:40 28.1 °C 18.4 °C 1017.2 hPa SE 1.6 km/h 4.8 km/h 56% 0 mm BKN
16:45 28.1 °C 17.9 °C 1016.8 hPa Calm   4.8 km/h 54% 0 mm BKN
16:50 28 °C 18.7 °C 1016.8 hPa Calm   1.6 km/h 57% 0 mm BKN
16:55 27.8 °C 18.6 °C 1016.8 hPa Calm   1.6 km/h 57% 0 mm BKN
17:00 27.8 °C 17.9 °C 1016.8 hPa Calm   1.6 km/h 55% 0 mm BKN
17:10 27.9 °C 18.3 °C 1016.8 hPa Calm     56% 0 mm BKN
17:15 27.9 °C 18.3 °C 1016.8 hPa Calm   3.2 km/h 56% 0 mm BKN
17:20 27.9 °C 18.3 °C 1016.8 hPa Calm   1.6 km/h 56% 0 mm BKN
17:25 27.9 °C 18.3 °C 1016.8 hPa Calm   1.6 km/h 56% 0 mm BKN
17:30 27.9 °C 18 °C 1016.5 hPa WSW 1.6 km/h 3.2 km/h 55% 0 mm BKN
17:40 27.8 °C 18.8 °C 1016.8 hPa Calm   1.6 km/h 58% 0 mm BKN
17:45 27.6 °C 18.6 °C 1016.8 hPa Calm   1.6 km/h 58% 0 mm BKN
17:50 27.5 °C 19.1 °C 1016.8 hPa Calm   1.6 km/h 60% 0 mm BKN
17:55 27.3 °C 18.9 °C 1016.8 hPa Calm   1.6 km/h 60% 0 mm BKN
18:00 27.2 °C 18.5 °C 1016.8 hPa Calm     59% 0 mm BKN
18:05 27.2 °C 18.5 °C 1016.8 hPa Calm     59% 0 mm BKN
18:10 27.1 °C 18.7 °C 1016.8 hPa Calm     60% 0 mm BKN
18:15 27.1 °C 18.6 °C 1016.5 hPa Calm     60% 0 mm BKN
18:20 27 °C 18.6 °C 1016.5 hPa Calm     60% 0 mm SCT
18:25 26.9 °C 19 °C 1016.5 hPa Calm     62% 0 mm SCT
18:30 26.7 °C 18.6 °C 1016.5 hPa Calm     61% 0 mm SCT
18:35 26.7 °C 18.8 °C 1016.5 hPa Calm     62% 0 mm SCT
18:40 26.6 °C 18.9 °C 1016.5 hPa Calm     63% 0 mm SCT
18:45 26.3 °C 19 °C 1016.5 hPa Calm     64% 0 mm SCT
18:50 26.2 °C 19.1 °C 1016.5 hPa Calm     65% 0 mm SCT
18:55 26.1 °C 18.9 °C 1016.5 hPa Calm     65% 0 mm SCT
19:00 25.9 °C 19.3 °C 1016.5 hPa Calm     67% 0 mm SCT
19:05 25.8 °C 19.2 °C 1016.1 hPa Calm     67% 0 mm SCT
19:10 25.7 °C 19.1 °C 1016.1 hPa Calm     67% 0 mm SCT
19:15 25.6 °C 19.1 °C 1016.5 hPa Calm     67% 0 mm SCT
19:20 25.6 °C 19.2 °C 1016.1 hPa Calm     68% 0 mm BKN
19:25 25.4 °C 19.1 °C 1016.1 hPa Calm     68% 0 mm BKN
19:30 25.3 °C 18.9 °C 1016.1 hPa Calm     68% 0 mm BKN
19:40 25 °C 19.2 °C 1016.1 hPa Calm     70% 0 mm BKN
19:45 24.8 °C 19 °C 1016.1 hPa Calm     70% 0 mm BKN
19:50 24.7 °C 18.9 °C 1015.8 hPa Calm     70% 0 mm BKN
19:55 24.6 °C 18.9 °C 1016.1 hPa Calm     71% 0 mm BKN
20:00 24.4 °C 18.8 °C 1016.1 hPa Calm     71% 0 mm BKN
20:10 24.2 °C 18.8 °C 1016.1 hPa Calm     72% 0 mm BKN
20:15 24.1 °C 18.9 °C 1016.1 hPa Calm     73% 0 mm BKN
20:20 23.9 °C 18.8 °C 1016.1 hPa Calm     73% 0 mm BKN
20:25 23.8 °C 18.9 °C 1015.8 hPa Calm     74% 0 mm BKN
20:30 23.7 °C 18.8 °C 1015.8 hPa Calm     74% 0 mm BKN
20:35 23.6 °C 18.7 °C 1016.1 hPa Calm     74% 0 mm BKN
20:40 23.4 °C 18.8 °C 1016.1 hPa Calm     75% 0 mm BKN
20:45 23.3 °C 18.7 °C 1016.1 hPa Calm     75% 0 mm BKN
20:50 23.2 °C 18.6 °C 1016.1 hPa Calm     75% 0 mm BKN
20:55 23.1 °C 18.6 °C 1016.1 hPa Calm     76% 0 mm BKN
21:00 22.9 °C 18.5 °C 1016.1 hPa Calm     76% 0 mm BKN
21:10 22.8 °C 18.8 °C 1016.1 hPa Calm     78% 0 mm BKN
21:15 22.7 °C 18.4 °C 1016.1 hPa Calm     77% 0 mm BKN
21:20 22.6 °C 18.5 °C 1016.1 hPa Calm     78% 0 mm SCT
21:25 22.5 °C 18.4 °C 1016.1 hPa Calm     78% 0 mm SCT
21:30 22.4 °C 18.6 °C 1016.1 hPa Calm     79% 0 mm SCT
21:40 22.2 °C 18.4 °C 1016.1 hPa Calm     79% 0 mm SCT
21:45 22.1 °C 18.3 °C 1016.1 hPa Calm     79% 0 mm SCT
21:50 22.1 °C 18.5 °C 1016.1 hPa Calm     80% 0 mm SCT
21:55 22 °C 18.4 °C 1016.1 hPa Calm     80% 0 mm SCT
22:00 21.9 °C 18.6 °C 1016.1 hPa Calm     81% 0 mm SCT
22:05 21.9 °C 18.5 °C 1016.5 hPa Calm     81% 0 mm SCT
22:10 21.8 °C 18.4 °C 1016.5 hPa Calm     81% 0 mm SCT
22:15 21.8 °C 18.4 °C 1016.5 hPa Calm     81% 0 mm SCT
22:20 21.7 °C 18.5 °C 1016.5 hPa Calm     82% 0 mm FEW
22:25 21.7 °C 18.5 °C 1016.1 hPa Calm     82% 0 mm FEW
22:30 21.7 °C 18.4 °C 1016.1 hPa Calm     82% 0 mm FEW
22:45 21.6 °C 18.5 °C 1016.1 hPa Calm     83% 0 mm FEW
22:50 21.5 °C 18.5 °C 1016.1 hPa Calm     83% 0 mm FEW
22:55 21.4 °C 18.4 °C 1016.1 hPa Calm     83% 0 mm FEW
23:00 21.4 °C 18.4 °C 1016.5 hPa Calm     83% 0 mm FEW
23:05 21.4 °C 18.4 °C 1016.5 hPa Calm     83% 0 mm FEW
23:10 21.4 °C 18.4 °C 1016.5 hPa Calm     83% 0 mm FEW
23:15 21.3 °C 18.3 °C 1016.1 hPa Calm     83% 0 mm FEW
23:20 21.3 °C 18.3 °C 1016.1 hPa Calm     83% 0 mm CLR
23:30 21.3 °C 18.3 °C 1016.1 hPa Calm     83% 0 mm CLR
23:40 21.3 °C 18.3 °C 1016.1 hPa Calm     83% 0 mm CLR
23:45 21.3 °C 18.5 °C 1016.1 hPa Calm     84% 0 mm CLR
23:50 21.3 °C 18.3 °C 1016.1 hPa Calm     83% 0 mm CLR
23:55 21.3 °C 18.3 °C 1016.1 hPa Calm     83% 0 mm CLR
Piedmont Bend
Compliments of Weather Underground - 4 mb